Pinedale, WY

1:15 PM MDT on April 30, 2017 (GMT -0600)
Wenz

Weather History for KPNA - October, 2013

Change the Weather History Date:

Sunday, October 20, 2013

  Actual Average (KBPI) Record (KBPI)
Temperature  
Mean Temperature 37 °F -  
Max Temperature 48 °F 50 °F 72 °F (2003)
Min Temperature 26 °F 20 °F 3 °F (1976)
Degree Days  
Heating Degree Days 28    
Moisture  
Dew Point 22 °F    
Average Humidity 61    
Maximum Humidity 86    
Minimum Humidity 30    
Precipitation  
Precipitation 0.00 in - - ()
Sea Level Pressure  
Sea Level Pressure 30.09 in    
Wind  
Wind Speed 8 mph (WNW)    
Max Wind Speed 21 mph    
Max Gust Speed 29 mph    
Visibility 10 miles    
Events      
Averages and records for this station are not official NWS values.
T = Trace of Precipitation, MM = Missing Value Source: NWS Daily Summary

Daily Weather History Graph

Daily Weather History Graph

Search for Another Location

Airport or City:

Trip Planner

Search our weather history database for the weather conditions in past years. The results will help you decide how hot, cold, wet, or windy it might be!

Date:

Astronomy

Oct. 20, 2013 Rise Set
Actual Time 7:38 AM MDT 6:28 PM MDT
Civil Twilight 7:10 AM MDT 6:57 PM MDT
Nautical Twilight 6:37 AM MDT 7:29 PM MDT
Astronomical Twilight 6:04 AM MDT 8:02 PM MDT
Moon 7:36 PM MDT (10/20) 9:22 AM MDT (10/20)
Length of Visible Light 11h 46m
Length of Day
10h 49m
Full, 97% of the Moon is Illuminated
Oct 20
Full
Oct 26
Last Quarter
Nov 3
New
Nov 9
First Quarter
Nov 17
Full

Hourly Weather History & Observations

Time (MDT) Temp. Windchill Dew Point Humidity Pressure Visibility Wind Dir Wind Speed Gust Speed Precip Events Conditions
12:15 AM 28.4 °F 23.3 °F 23.0 °F 80% 30.08 in 10.0 mi West 4.6 mph - N/A   Scattered Clouds
12:35 AM 28.4 °F 23.3 °F 23.0 °F 80% 30.08 in 10.0 mi WNW 4.6 mph - N/A   Overcast
12:55 AM 28.4 °F 22.2 °F 23.0 °F 80% 30.08 in 10.0 mi West 5.8 mph - N/A   Overcast
1:15 AM 30.2 °F 24.3 °F 24.8 °F 80% 30.08 in 10.0 mi WNW 5.8 mph - N/A   Overcast
1:35 AM 28.4 °F - 23.0 °F 80% 30.07 in 10.0 mi Calm Calm - N/A   Overcast
1:55 AM 28.4 °F 23.3 °F 23.0 °F 80% 30.07 in 10.0 mi WNW 4.6 mph - N/A   Overcast
2:15 AM 28.4 °F 21.2 °F 24.8 °F 86% 30.06 in 10.0 mi West 6.9 mph - N/A   Overcast
2:35 AM 28.4 °F 23.3 °F 24.8 °F 86% 30.06 in 10.0 mi NW 4.6 mph - N/A   Overcast
2:55 AM 28.4 °F - 24.8 °F 86% 30.06 in 10.0 mi Calm Calm - N/A   Scattered Clouds
3:15 AM 30.2 °F 25.4 °F 24.8 °F 80% 30.06 in 10.0 mi North 4.6 mph - N/A   Scattered Clouds
3:35 AM 30.2 °F - 24.8 °F 80% 30.05 in 10.0 mi Calm Calm - N/A   Scattered Clouds
3:55 AM 30.2 °F 26.7 °F 24.8 °F 80% 30.05 in 10.0 mi West 3.5 mph - N/A   Mostly Cloudy
4:15 AM 30.2 °F 24.3 °F 26.6 °F 86% 30.05 in 10.0 mi West 5.8 mph - N/A   Overcast
4:35 AM 30.2 °F 25.4 °F 26.6 °F 86% 30.05 in 10.0 mi WNW 4.6 mph - N/A   Overcast
4:55 AM 32.0 °F 25.6 °F 26.6 °F 80% 30.05 in 10.0 mi WNW 6.9 mph - N/A   Overcast
5:15 AM 32.0 °F 27.5 °F 26.6 °F 80% 30.05 in 10.0 mi WNW 4.6 mph - N/A   Overcast
5:35 AM 32.0 °F 25.6 °F 26.6 °F 80% 30.05 in 10.0 mi West 6.9 mph - N/A   Mostly Cloudy
5:55 AM 32.0 °F - 26.6 °F 80% 30.05 in 10.0 mi Calm Calm - N/A   Scattered Clouds
6:15 AM 32.0 °F 27.5 °F 26.6 °F 80% 30.05 in 10.0 mi WNW 4.6 mph - N/A   Overcast
6:35 AM 32.0 °F 27.5 °F 26.6 °F 80% 30.05 in 10.0 mi West 4.6 mph - N/A   Overcast
6:55 AM 32.0 °F 25.6 °F 26.6 °F 80% 30.05 in 10.0 mi West 6.9 mph - N/A   Overcast
7:15 AM 32.0 °F 23.6 °F 24.8 °F 75% 30.05 in 10.0 mi West 10.4 mph - N/A   Mostly Cloudy
7:35 AM 30.2 °F 21.9 °F 23.0 °F 75% 30.05 in 10.0 mi WNW 9.2 mph - N/A   Mostly Cloudy
7:55 AM 30.2 °F 22.6 °F 23.0 °F 75% 30.05 in 10.0 mi WNW 8.1 mph - N/A   Scattered Clouds
8:15 AM 30.2 °F 23.4 °F 24.8 °F 80% 30.06 in 10.0 mi NW 6.9 mph - N/A   Clear
8:35 AM 32.0 °F 25.6 °F 26.6 °F 80% 30.08 in 10.0 mi NW 6.9 mph - N/A   Clear
8:55 AM 32.0 °F 26.4 °F 26.6 °F 80% 30.09 in 10.0 mi WNW 5.8 mph - N/A   Clear
9:15 AM 35.6 °F 27.5 °F 26.6 °F 70% 30.09 in 10.0 mi WNW 11.5 mph - N/A   Clear
9:35 AM 37.4 °F 28.5 °F 26.6 °F 65% 30.09 in 10.0 mi WNW 15.0 mph - N/A   Clear
9:55 AM 41.0 °F 33.9 °F 26.6 °F 57% 30.09 in 10.0 mi NW 12.7 mph - N/A   Clear
10:15 AM 42.8 °F 34.0 °F 23.0 °F 46% 30.09 in 10.0 mi NNW 20.7 mph - N/A   Clear
10:35 AM 44.6 °F 36.4 °F 21.2 °F 39% 30.09 in 10.0 mi NW 20.7 mph 28.8 mph N/A   Clear
10:55 AM 44.6 °F 37.4 °F 21.2 °F 39% 30.09 in 10.0 mi NW 16.1 mph 27.6 mph N/A   Clear
11:15 AM 44.6 °F 36.4 °F 19.4 °F 37% 30.08 in 10.0 mi NW 20.7 mph 24.2 mph N/A   Clear
11:35 AM 44.6 °F 37.2 °F 19.4 °F 37% 30.08 in 10.0 mi NW 17.3 mph 26.5 mph N/A   Clear
11:55 AM 46.4 °F 39.8 °F 19.4 °F 34% 30.08 in 10.0 mi NNW 16.1 mph 26.5 mph N/A   Clear
12:15 PM 46.4 °F 39.8 °F 19.4 °F 34% 30.08 in 10.0 mi NW 16.1 mph 23.0 mph N/A   Clear
12:35 PM 46.4 °F 39.2 °F 19.4 °F 34% 30.08 in 10.0 mi WNW 18.4 mph 23.0 mph N/A   Clear
12:55 PM 46.4 °F 39.5 °F 19.4 °F 34% 30.07 in 10.0 mi WNW 17.3 mph 23.0 mph N/A   Clear
1:15 PM 46.4 °F 40.1 °F 19.4 °F 34% 30.07 in 10.0 mi NW 15.0 mph 25.3 mph N/A   Clear
1:35 PM 46.4 °F 40.1 °F 19.4 °F 34% 30.07 in 10.0 mi NW 15.0 mph 20.7 mph N/A   Clear
1:55 PM 46.4 °F 39.8 °F 19.4 °F 34% 30.07 in 10.0 mi NW 16.1 mph 21.9 mph N/A   Clear
2:15 PM 46.4 °F 41.5 °F 17.6 °F 32% 30.06 in 10.0 mi NW 10.4 mph 23.0 mph N/A   Clear
2:35 PM 46.4 °F 40.4 °F 17.6 °F 32% 30.06 in 10.0 mi NW 13.8 mph 19.6 mph N/A   Scattered Clouds
2:55 PM 46.4 °F 41.5 °F 17.6 °F 32% 30.06 in 10.0 mi NNW 10.4 mph 21.9 mph N/A   Scattered Clouds
3:15 PM 48.2 °F - 17.6 °F 30% 30.05 in 10.0 mi North 13.8 mph 23.0 mph N/A   Clear
3:35 PM 46.4 °F 41.1 °F 17.6 °F 32% 30.06 in 10.0 mi NW 11.5 mph - N/A   Scattered Clouds
3:55 PM 46.4 °F 41.9 °F 17.6 °F 32% 30.06 in 10.0 mi NW 9.2 mph - N/A   Scattered Clouds
4:15 PM 46.4 °F 41.5 °F 17.6 °F 32% 30.06 in 10.0 mi NW 10.4 mph - N/A   Scattered Clouds
4:35 PM 46.4 °F 40.7 °F 17.6 °F 32% 30.07 in 10.0 mi NW 12.7 mph - N/A   Clear
4:55 PM 44.6 °F 38.8 °F 17.6 °F 34% 30.06 in 10.0 mi NW 11.5 mph 16.1 mph N/A   Clear
5:15 PM 46.4 °F 41.1 °F 19.4 °F 34% 30.07 in 10.0 mi NNW 11.5 mph 16.1 mph N/A   Clear
5:35 PM 46.4 °F 40.4 °F 17.6 °F 32% 30.07 in 10.0 mi NW 13.8 mph - N/A   Scattered Clouds
5:55 PM 44.6 °F 39.2 °F 17.6 °F 34% 30.08 in 10.0 mi NW 10.4 mph - N/A   Scattered Clouds
6:15 PM 42.8 °F 37.0 °F 19.4 °F 39% 30.09 in 10.0 mi WNW 10.4 mph - N/A   Clear
6:35 PM 41.0 °F 35.2 °F 19.4 °F 42% 30.09 in 10.0 mi WNW 9.2 mph - N/A   Clear
6:55 PM 35.6 °F 28.6 °F 21.2 °F 56% 30.11 in 10.0 mi WNW 9.2 mph - N/A   Clear
7:15 PM 33.8 °F 27.0 °F 21.2 °F 60% 30.11 in 10.0 mi NW 8.1 mph - N/A   Clear
7:35 PM 33.8 °F 26.4 °F 21.2 °F 60% 30.13 in 10.0 mi WNW 9.2 mph - N/A   Clear
7:55 PM 32.0 °F 27.5 °F 21.2 °F 64% 30.13 in 10.0 mi NW 4.6 mph - N/A   Clear
8:15 PM 30.2 °F 26.7 °F 21.2 °F 69% 30.13 in 10.0 mi NW 3.5 mph - N/A   Clear
8:35 PM 30.2 °F 23.4 °F 21.2 °F 69% 30.13 in 10.0 mi WNW 6.9 mph - N/A   Clear
8:55 PM 28.4 °F 20.4 °F 21.2 °F 74% 30.14 in 10.0 mi WNW 8.1 mph - N/A   Clear
9:15 PM 28.4 °F 19.1 °F 21.2 °F 74% 30.14 in 10.0 mi NW 10.4 mph - N/A   Clear
9:35 PM 30.2 °F 20.8 °F 21.2 °F 69% 30.14 in 10.0 mi NW 11.5 mph - N/A   Clear
9:55 PM 28.4 °F 19.1 °F 21.2 °F 74% 30.15 in 10.0 mi NW 10.4 mph - N/A   Clear
10:15 PM 28.4 °F 20.4 °F 21.2 °F 74% 30.16 in 10.0 mi NW 8.1 mph - N/A   Clear
10:35 PM 28.4 °F 24.6 °F 21.2 °F 74% 30.17 in 10.0 mi WNW 3.5 mph - N/A   Clear
10:55 PM 28.4 °F 23.3 °F 21.2 °F 74% 30.17 in 10.0 mi West 4.6 mph - N/A   Clear
11:15 PM 28.4 °F 20.4 °F 21.2 °F 74% 30.17 in 10.0 mi West 8.1 mph - N/A   Clear
11:35 PM 26.6 °F 19.1 °F 21.2 °F 80% 30.18 in 10.0 mi West 6.9 mph - N/A   Clear
11:55 PM 26.6 °F 18.2 °F 21.2 °F 80% 30.18 in 10.0 mi WNW 8.1 mph - N/A   Clear